Location: Newark
(25.3833°N, 97.4000°E)
Time: 03:10:11
(UTC+00:00)

LightSail 2 - Visible Passes

Search period start: 06 December 2019 00:00
Search period end: 16 December 2019 00:00
Orbit: 695 x 731 km, 24.0° (Epoch: 05 December)

Date Brightness Start Highest point End Pass type
(mag) Time Alt. Az. Time Alt. Az. Time Alt. Az.
06 Dec 5.2 11:31:13 10° W 11:36:22 77° S 11:40:24 16° E visible
06 Dec 7.0 13:16:50 10° W 13:19:24 28° WSW 13:19:24 28° WSW visible
07 Dec 5.4 12:18:42 10° W 12:23:47 61° S 12:25:07 45° SE visible
08 Dec 5.4 11:20:34 10° W 11:25:44 69° S 11:30:51 10° ESE visible
08 Dec 6.6 13:06:22 10° W 13:09:54 32° SW 13:09:54 32° SW visible
09 Dec 5.9 12:08:07 10° W 12:13:04 46° SSW 12:15:47 24° SE visible
09 Dec 8.2 13:54:44 10° WSW 13:54:47 10° WSW 13:54:47 10° WSW visible
10 Dec 5.8 11:09:57 10° W 11:15:02 56° SSW 11:20:05 10° ESE visible
10 Dec 6.9 12:56:06 10° WSW 13:00:17 25° SSW 13:00:46 24° SSW visible
11 Dec 6.6 11:57:40 10° W 12:02:17 32° SSW 12:06:51 10° SE visible
12 Dec 6.4 10:59:22 10° W 11:04:16 41° SSW 11:09:07 10° SE visible
12 Dec 7.6 12:46:22 10° WSW 12:49:24 16° SSW 12:52:06 11° S visible
13 Dec 7.4 11:47:30 10° WSW 11:51:25 21° SSW 11:55:18 10° SSE visible
15 Dec 7.9 11:38:07 10° SW 11:40:30 13° SSW 11:42:53 10° S visible
